Location: San Martino di Castrozza
(46.2667°N, 11.8000°E)
Time: 02:46:51
(UTC+00:00)

DNEPR-1 R/B - Pass Details

Date: 23 April 2021
Orbit: 586 x 1335 km, 64.6° (Epoch: 15 May)

Event Time Altitude Azimuth Distance (km) Brightness Sun altitude
Exits shadow 02:35:56 20° 210° (SSW) 2,006 5.6 -15.4°
Maximum altitude 02:40:17 82° 125° (SE) 853 4.2 -14.8°
Drops below altitude 10° 02:45:26 10° 39° (NE) 2,245 7.7 -14.1°
Sets 02:47:35 0° 38° (NE) 3,085 8.7 -13.8°
